Time,TemperatureF,DewpointF,PressureIn,WindDirection,WindDirectionDegrees,WindSpeedMPH,WindSpeedGustMPH,Humidity,HourlyPrecipIn,Conditions,Clouds,dailyrainin,SoftwareType,DateUTC
2013-02-20 00:01:00,21.0,9.0,-100.00,SW,221,1.0,2.0,60,-99.99,,,-99.99,,2013-02-20 07:01:00,
2013-02-20 00:11:00,21.0,9.0,-100.00,SW,221,1.0,2.0,60,-99.99,,,-99.99,,2013-02-20 07:11:00,
2013-02-20 00:21:00,21.0,10.0,-100.00,SW,228,1.0,2.0,63,-99.99,,,-99.99,,2013-02-20 07:21:00,
2013-02-20 00:31:00,21.0,10.0,-100.00,SW,228,1.0,2.0,63,-99.99,,,-99.99,,2013-02-20 07:31:00,
2013-02-20 00:41:00,21.0,10.0,-100.00,SW,228,1.0,2.0,63,-99.99,,,-99.99,,2013-02-20 07:41:00,
2013-02-20 01:52:00,23.0,10.0,-100.00,SW,236,0.0,1.0,57,-99.99,,,-99.99,,2013-02-20 08:52:00,
2013-02-20 02:01:00,23.0,10.0,-100.00,WNW,290,0.0,2.0,57,-99.99,,,-99.99,,2013-02-20 09:01:00,
2013-02-20 02:11:00,23.0,10.0,-100.00,WNW,290,0.0,2.0,57,-99.99,,,-99.99,,2013-02-20 09:11:00,
2013-02-20 02:21:00,23.0,14.0,-100.00,North,351,1.0,4.0,68,-99.99,,,-99.99,,2013-02-20 09:21:00,
2013-02-20 02:31:00,23.0,17.0,-100.00,WNW,299,1.0,3.0,76,-99.99,,,-99.99,,2013-02-20 09:31:00,
2013-02-20 02:41:00,23.0,17.0,-100.00,WNW,299,1.0,3.0,76,-99.99,,,-99.99,,2013-02-20 09:41:00,
2013-02-20 02:51:00,23.0,16.0,-100.00,North,2,0.0,1.0,75,-99.99,,,-99.99,,2013-02-20 09:51:00,
2013-02-20 03:01:00,22.0,18.0,-100.00,West,266,1.0,3.0,84,-99.99,,,-99.99,,2013-02-20 10:01:00,
2013-02-20 03:12:00,22.0,18.0,-100.00,West,266,1.0,3.0,84,-99.99,,,-99.99,,2013-02-20 10:12:00,
2013-02-20 03:21:00,21.0,18.0,-100.00,WNW,284,1.0,2.0,88,-99.99,,,-99.99,,2013-02-20 10:21:00,
2013-02-20 03:31:00,22.0,18.0,-100.00,WNW,293,2.0,7.0,85,-99.99,,,-99.99,,2013-02-20 10:31:00,
2013-02-20 03:41:00,22.0,18.0,-100.00,WNW,293,2.0,7.0,85,-99.99,,,-99.99,,2013-02-20 10:41:00,
2013-02-20 03:51:00,22.0,17.0,-100.00,SW,226,0.0,1.0,81,-99.99,,,-99.99,,2013-02-20 10:51:00,
2013-02-20 04:02:00,22.0,17.0,-100.00,WSW,251,0.0,1.0,80,-99.99,,,-99.99,,2013-02-20 11:02:00,
2013-02-20 04:11:00,22.0,17.0,-100.00,WSW,251,0.0,1.0,80,-99.99,,,-99.99,,2013-02-20 11:11:00,
2013-02-20 04:21:00,21.0,17.0,-100.00,SW,223,1.0,2.0,83,-99.99,,,-99.99,,2013-02-20 11:21:00,
2013-02-20 04:32:00,21.0,17.0,-100.00,SW,229,1.0,2.0,83,-99.99,,,-99.99,,2013-02-20 11:32:00,
2013-02-20 04:41:00,21.0,17.0,-100.00,SW,229,1.0,2.0,83,-99.99,,,-99.99,,2013-02-20 11:41:00,
2013-02-20 04:52:00,20.0,16.0,-100.00,SW,232,1.0,2.0,84,-99.99,,,-99.99,,2013-02-20 11:52:00,
2013-02-20 05:01:00,20.0,16.0,-100.00,SSW,212,1.0,2.0,84,-99.99,,,-99.99,,2013-02-20 12:01:00,
2013-02-20 05:12:00,20.0,16.0,-100.00,SSW,212,1.0,2.0,84,-99.99,,,-99.99,,2013-02-20 12:12:00,
2013-02-20 05:21:00,21.0,16.0,-100.00,SW,229,1.0,2.0,82,-99.99,,,-99.99,,2013-02-20 12:21:00,
2013-02-20 05:31:00,21.0,17.0,-100.00,SSW,207,2.0,2.0,83,-99.99,,,-99.99,,2013-02-20 12:31:00,
2013-02-20 05:42:00,21.0,17.0,-100.00,SSW,207,2.0,2.0,83,-99.99,,,-99.99,,2013-02-20 12:42:00,
2013-02-20 05:52:00,21.0,16.0,-100.00,SSW,197,1.0,3.0,80,-99.99,,,-99.99,,2013-02-20 12:52:00,
2013-02-20 06:01:00,22.0,16.0,-100.00,SSW,196,2.0,3.0,79,-99.99,,,-99.99,,2013-02-20 13:01:00,
2013-02-20 06:11:00,22.0,16.0,-100.00,SSW,196,2.0,3.0,79,-99.99,,,-99.99,,2013-02-20 13:11:00,
2013-02-20 06:22:00,22.0,17.0,-100.00,SSW,200,2.0,3.0,81,-99.99,,,-99.99,,2013-02-20 13:22:00,
2013-02-20 06:31:00,22.0,17.0,-100.00,SSW,200,2.0,3.0,81,-99.99,,,-99.99,,2013-02-20 13:31:00,
2013-02-20 06:42:00,22.0,17.0,-100.00,SSW,200,2.0,3.0,81,-99.99,,,-99.99,,2013-02-20 13:42:00,
2013-02-20 07:01:00,21.0,17.0,-100.00,SW,234,1.0,2.0,86,-99.99,,,-99.99,,2013-02-20 14:01:00,
2013-02-20 07:11:00,21.0,17.0,-100.00,SW,234,1.0,2.0,86,-99.99,,,-99.99,,2013-02-20 14:11:00,
2013-02-20 07:21:00,21.0,17.0,-100.00,WSW,239,1.0,3.0,86,-99.99,,,-99.99,,2013-02-20 14:21:00,
2013-02-20 07:32:00,21.0,18.0,-100.00,SW,215,1.0,2.0,87,-99.99,,,-99.99,,2013-02-20 14:32:00,
2013-02-20 07:42:00,21.0,18.0,-100.00,SW,215,1.0,2.0,87,-99.99,,,-99.99,,2013-02-20 14:42:00,
2013-02-20 07:52:00,21.0,18.0,-100.00,SSW,209,2.0,2.0,87,-99.99,,,-99.99,,2013-02-20 14:52:00,
2013-02-20 08:01:00,22.0,18.0,-100.00,SSW,196,1.0,2.0,84,-99.99,,,-99.99,,2013-02-20 15:01:00,
2013-02-20 08:11:00,22.0,18.0,-100.00,SSW,196,1.0,2.0,84,-99.99,,,-99.99,,2013-02-20 15:11:00,
2013-02-20 08:22:00,23.0,18.0,-100.00,SSW,200,1.0,2.0,82,-99.99,,,-99.99,,2013-02-20 15:22:00,
2013-02-20 08:32:00,23.0,19.0,-100.00,SSW,204,1.0,2.0,84,-99.99,,,-99.99,,2013-02-20 15:32:00,
2013-02-20 08:41:00,23.0,19.0,-100.00,SSW,204,1.0,2.0,84,-99.99,,,-99.99,,2013-02-20 15:41:00,
2013-02-20 08:51:00,23.0,19.0,-100.00,SSW,201,1.0,2.0,85,-99.99,,,-99.99,,2013-02-20 15:51:00,
2013-02-20 09:01:00,24.0,20.0,-100.00,SE,133,0.0,1.0,84,-99.99,,,-99.99,,2013-02-20 16:01:00,
2013-02-20 09:11:00,24.0,20.0,-100.00,SE,133,0.0,1.0,84,-99.99,,,-99.99,,2013-02-20 16:11:00,
2013-02-20 09:21:00,25.0,21.0,-100.00,NE,43,0.0,1.0,84,-99.99,,,-99.99,,2013-02-20 16:21:00,
2013-02-20 09:32:00,24.0,20.0,-100.00,NW,306,1.0,3.0,86,-99.99,,,-99.99,,2013-02-20 16:32:00,
2013-02-20 09:41:00,24.0,20.0,-100.00,NW,306,1.0,3.0,86,-99.99,,,-99.99,,2013-02-20 16:41:00,
2013-02-20 09:51:00,25.0,21.0,-100.00,East,81,0.0,2.0,83,-99.99,,,-99.99,,2013-02-20 16:51:00,
2013-02-20 10:01:00,26.0,21.0,-100.00,NE,40,1.0,2.0,80,-99.99,,,-99.99,,2013-02-20 17:01:00,
2013-02-20 10:11:00,26.0,21.0,-100.00,NE,40,1.0,2.0,80,-99.99,,,-99.99,,2013-02-20 17:11:00,
2013-02-20 10:21:00,25.0,21.0,-100.00,North,2,0.0,3.0,85,-99.99,,,-99.99,,2013-02-20 17:21:00,
2013-02-20 10:32:00,26.0,20.0,-100.00,SSE,162,1.0,3.0,79,-99.99,,,-99.99,,2013-02-20 17:32:00,
2013-02-20 10:41:00,26.0,20.0,-100.00,SSE,162,1.0,3.0,79,-99.99,,,-99.99,,2013-02-20 17:41:00,
2013-02-20 10:52:00,26.0,21.0,-100.00,North,5,1.0,4.0,80,-99.99,,,-99.99,,2013-02-20 17:52:00,
2013-02-20 11:02:00,25.0,21.0,-100.00,ENE,63,1.0,2.0,83,-99.99,,,-99.99,,2013-02-20 18:02:00,
2013-02-20 11:11:00,25.0,21.0,-100.00,ENE,63,1.0,2.0,83,-99.99,,,-99.99,,2013-02-20 18:11:00,
2013-02-20 11:21:00,26.0,21.0,-100.00,North,351,1.0,2.0,82,-99.99,,,-99.99,,2013-02-20 18:21:00,
2013-02-20 11:31:00,25.0,21.0,-100.00,NW,311,3.0,8.0,84,-99.99,,,-99.99,,2013-02-20 18:31:00,
2013-02-20 11:42:00,25.0,21.0,-100.00,NW,311,3.0,8.0,84,-99.99,,,-99.99,,2013-02-20 18:42:00,
2013-02-20 11:51:00,26.0,21.0,-100.00,NW,313,2.0,5.0,82,-99.99,,,-99.99,,2013-02-20 18:51:00,
2013-02-20 12:01:00,26.0,21.0,-100.00,NW,313,4.0,8.0,81,-99.99,,,-99.99,,2013-02-20 19:01:00,
2013-02-20 12:11:00,26.0,21.0,-100.00,NW,313,4.0,8.0,81,-99.99,,,-99.99,,2013-02-20 19:11:00,
2013-02-20 12:21:00,26.0,22.0,-100.00,NNW,331,3.0,8.0,84,-99.99,,,-99.99,,2013-02-20 19:21:00,
2013-02-20 12:31:00,27.0,22.0,-100.00,NNW,338,2.0,7.0,81,-99.99,,,-99.99,,2013-02-20 19:31:00,
2013-02-20 12:41:00,27.0,22.0,-100.00,NNW,338,2.0,7.0,81,-99.99,,,-99.99,,2013-02-20 19:41:00,
2013-02-20 12:51:00,28.0,22.0,-100.00,West,263,2.0,5.0,79,-99.99,,,-99.99,,2013-02-20 19:51:00,
2013-02-20 13:01:00,28.0,21.0,-100.00,WSW,238,1.0,5.0,76,-99.99,,,-99.99,,2013-02-20 20:01:00,
2013-02-20 13:11:00,28.0,21.0,-100.00,WSW,238,1.0,5.0,76,-99.99,,,-99.99,,2013-02-20 20:11:00,
2013-02-20 13:21:00,29.0,22.0,-100.00,ESE,116,1.0,2.0,75,-99.99,,,-99.99,,2013-02-20 20:21:00,
2013-02-20 13:31:00,29.0,21.0,-100.00,North,355,2.0,3.0,73,-99.99,,,-99.99,,2013-02-20 20:31:00,
2013-02-20 13:41:00,29.0,21.0,-100.00,North,355,2.0,3.0,73,-99.99,,,-99.99,,2013-02-20 20:41:00,
2013-02-20 13:51:00,31.0,20.0,-100.00,SW,224,2.0,4.0,62,-99.99,,,-99.99,,2013-02-20 20:51:00,
2013-02-20 14:01:00,30.0,20.0,-100.00,North,4,1.0,3.0,67,-99.99,,,-99.99,,2013-02-20 21:01:00,
2013-02-20 14:11:00,30.0,20.0,-100.00,North,4,1.0,3.0,67,-99.99,,,-99.99,,2013-02-20 21:11:00,
2013-02-20 14:21:00,28.0,20.0,-100.00,ENE,65,2.0,4.0,71,-99.99,,,-99.99,,2013-02-20 21:21:00,
2013-02-20 14:31:00,30.0,21.0,-100.00,NE,53,2.0,4.0,68,-99.99,,,-99.99,,2013-02-20 21:31:00,
2013-02-20 14:41:00,30.0,21.0,-100.00,NE,53,2.0,4.0,68,-99.99,,,-99.99,,2013-02-20 21:41:00,
2013-02-20 14:51:00,30.0,21.0,-100.00,NE,53,2.0,4.0,68,-99.99,,,-99.99,,2013-02-20 21:51:00,
2013-02-20 15:01:00,29.0,21.0,-100.00,North,10,2.0,4.0,71,-99.99,,,-99.99,,2013-02-20 22:01:00,
2013-02-20 15:11:00,28.0,20.0,-100.00,North,358,2.0,7.0,71,-99.99,,,-99.99,,2013-02-20 22:11:00,
2013-02-20 15:21:00,28.0,20.0,-100.00,North,358,2.0,7.0,71,-99.99,,,-99.99,,2013-02-20 22:21:00,
2013-02-20 15:31:00,28.0,21.0,-100.00,NNE,32,2.0,5.0,75,-99.99,,,-99.99,,2013-02-20 22:31:00,
2013-02-20 15:41:00,28.0,21.0,-100.00,NNE,32,2.0,5.0,75,-99.99,,,-99.99,,2013-02-20 22:41:00,
2013-02-20 15:51:00,28.0,21.0,-100.00,NNW,327,2.0,5.0,75,-99.99,,,-99.99,,2013-02-20 22:51:00,
2013-02-20 16:01:00,28.0,22.0,-100.00,ESE,108,1.0,2.0,77,-99.99,,,-99.99,,2013-02-20 23:01:00,
2013-02-20 16:12:00,28.0,22.0,-100.00,ESE,108,1.0,2.0,77,-99.99,,,-99.99,,2013-02-20 23:12:00,
2013-02-20 16:22:00,27.0,22.0,-100.00,NNW,338,3.0,5.0,80,-99.99,,,-99.99,,2013-02-20 23:22:00,
2013-02-20 16:31:00,27.0,22.0,-100.00,NE,41,2.0,4.0,80,-99.99,,,-99.99,,2013-02-20 23:31:00,
2013-02-20 16:42:00,27.0,22.0,-100.00,NE,41,2.0,4.0,80,-99.99,,,-99.99,,2013-02-20 23:42:00,
2013-02-20 16:52:00,27.0,22.0,-100.00,ENE,63,1.0,3.0,82,-99.99,,,-99.99,,2013-02-20 23:52:00,
2013-02-20 17:02:00,26.0,22.0,-100.00,NW,324,2.0,4.0,86,-99.99,,,-99.99,,2013-02-21 00:02:00,
2013-02-20 17:11:00,26.0,22.0,-100.00,NW,324,2.0,4.0,86,-99.99,,,-99.99,,2013-02-21 00:11:00,
2013-02-20 17:21:00,26.0,23.0,-100.00,NE,52,2.0,5.0,87,-99.99,,,-99.99,,2013-02-21 00:21:00,
2013-02-20 17:32:00,26.0,22.0,-100.00,ENE,65,2.0,4.0,86,-99.99,,,-99.99,,2013-02-21 00:32:00,
2013-02-20 17:42:00,26.0,22.0,-100.00,ENE,65,2.0,4.0,86,-99.99,,,-99.99,,2013-02-21 00:42:00,
2013-02-20 17:52:00,25.0,21.0,-100.00,East,88,2.0,4.0,85,-99.99,,,-99.99,,2013-02-21 00:52:00,
2013-02-20 18:01:00,25.0,21.0,-100.00,NNW,328,4.0,7.0,84,-99.99,,,-99.99,,2013-02-21 01:01:00,
2013-02-20 18:11:00,25.0,21.0,-100.00,NNW,328,4.0,7.0,84,-99.99,,,-99.99,,2013-02-21 01:11:00,
2013-02-20 18:21:00,24.0,20.0,-100.00,NW,324,4.0,6.0,85,-99.99,,,-99.99,,2013-02-21 01:21:00,
2013-02-20 18:32:00,24.0,20.0,-100.00,NNE,23,1.0,3.0,85,-99.99,,,-99.99,,2013-02-21 01:32:00,
2013-02-20 18:41:00,24.0,20.0,-100.00,NNE,23,1.0,3.0,85,-99.99,,,-99.99,,2013-02-21 01:41:00,
2013-02-20 18:51:00,24.0,20.0,-100.00,NW,316,1.0,9.0,84,-99.99,,,-99.99,,2013-02-21 01:51:00,
2013-02-20 19:01:00,23.0,19.0,-100.00,NW,309,2.0,4.0,85,-99.99,,,-99.99,,2013-02-21 02:01:00,
2013-02-20 19:11:00,23.0,19.0,-100.00,NW,309,2.0,4.0,85,-99.99,,,-99.99,,2013-02-21 02:11:00,
2013-02-20 19:21:00,24.0,21.0,-100.00,NE,53,0.0,2.0,88,-99.99,,,-99.99,,2013-02-21 02:21:00,
2013-02-20 19:32:00,23.0,21.0,-100.00,NE,41,1.0,4.0,91,-99.99,,,-99.99,,2013-02-21 02:32:00,
2013-02-20 19:42:00,23.0,21.0,-100.00,NE,41,1.0,4.0,91,-99.99,,,-99.99,,2013-02-21 02:42:00,
2013-02-20 19:51:00,23.0,21.0,-100.00,NE,41,1.0,4.0,91,-99.99,,,-99.99,,2013-02-21 02:51:00,
2013-02-20 20:01:00,22.0,21.0,-100.00,ENE,68,1.0,3.0,97,-99.99,,,-99.99,,2013-02-21 03:01:00,
2013-02-20 20:11:00,22.0,21.0,-100.00,ENE,68,1.0,3.0,97,-99.99,,,-99.99,,2013-02-21 03:11:00,
2013-02-20 20:21:00,22.0,22.0,-100.00,NE,42,1.0,3.0,98,-99.99,,,-99.99,,2013-02-21 03:21:00,
2013-02-20 20:31:00,22.0,21.0,-100.00,ESE,120,0.0,1.0,97,-99.99,,,-99.99,,2013-02-21 03:31:00,
2013-02-20 20:41:00,22.0,21.0,-100.00,ESE,120,0.0,1.0,97,-99.99,,,-99.99,,2013-02-21 03:41:00,
2013-02-20 20:51:00,22.0,21.0,-100.00,ESE,122,1.0,2.0,95,-99.99,,,-99.99,,2013-02-21 03:51:00,
2013-02-20 21:01:00,22.0,20.0,-100.00,NE,34,1.0,2.0,93,-99.99,,,-99.99,,2013-02-21 04:01:00,
2013-02-20 21:11:00,22.0,20.0,-100.00,NE,34,1.0,2.0,93,-99.99,,,-99.99,,2013-02-21 04:11:00,
2013-02-20 21:21:00,22.0,22.0,-100.00,NE,51,1.0,2.0,98,-99.99,,,-99.99,,2013-02-21 04:21:00,
2013-02-20 21:31:00,21.0,21.0,-100.00,NW,316,0.0,1.0,98,-99.99,,,-99.99,,2013-02-21 04:31:00,
2013-02-20 21:41:00,21.0,21.0,-100.00,NW,316,0.0,1.0,98,-99.99,,,-99.99,,2013-02-21 04:41:00,
2013-02-20 21:51:00,21.0,20.0,-100.00,WNW,282,1.0,2.0,96,-99.99,,,-99.99,,2013-02-21 04:51:00,
2013-02-20 22:02:00,21.0,20.0,-100.00,NNE,12,1.0,2.0,94,-99.99,,,-99.99,,2013-02-21 05:02:00,
2013-02-20 22:12:00,21.0,20.0,-100.00,NNE,12,1.0,2.0,94,-99.99,,,-99.99,,2013-02-21 05:12:00,
2013-02-20 22:22:00,22.0,20.0,-100.00,NE,34,2.0,4.0,92,-99.99,,,-99.99,,2013-02-21 05:22:00,
2013-02-20 22:32:00,22.0,20.0,-100.00,East,82,1.0,4.0,92,-99.99,,,-99.99,,2013-02-21 05:32:00,
2013-02-20 22:43:00,22.0,20.0,-100.00,East,82,1.0,4.0,92,-99.99,,,-99.99,,2013-02-21 05:43:00,
2013-02-20 22:52:00,21.0,19.0,-100.00,North,6,1.0,3.0,91,-99.99,,,-99.99,,2013-02-21 05:52:00,
2013-02-20 23:01:00,22.0,20.0,-100.00,NNE,22,2.0,5.0,90,-99.99,,,-99.99,,2013-02-21 06:01:00,
2013-02-20 23:11:00,21.0,18.0,-100.00,NNE,19,1.0,3.0,89,-99.99,,,-99.99,,2013-02-21 06:11:00,
2013-02-20 23:21:00,21.0,18.0,-100.00,NNE,19,1.0,3.0,89,-99.99,,,-99.99,,2013-02-21 06:21:00,
2013-02-20 23:31:00,21.0,20.0,-100.00,NNW,328,1.0,2.0,95,-99.99,,,-99.99,,2013-02-21 06:31:00,
2013-02-20 23:41:00,21.0,20.0,-100.00,NNW,328,1.0,2.0,95,-99.99,,,-99.99,,2013-02-21 06:41:00,
2013-02-20 23:51:00,21.0,20.0,-100.00,ENE,68,1.0,3.0,95,-99.99,,,-99.99,,2013-02-21 06:51:00,